Location: Heisede
(52.2582°N, 9.8523°E)
Time: 14:29:11
(UTC+00:00)

Cosmos 1707 Rocket - Pass Details

Date: 13 January 2026
Orbit: 599 x 623 km, 82.5° (Epoch: 16 February)

Event Time Altitude Azimuth Distance (km) Brightness Sun altitude
Rises 06:37:17 0° 342° (NNW) 2,861 6.6 -7.0°
Reaches altitude 10° 06:39:39 10° 333° (NNW) 1,954 5.6 -6.7°
Maximum altitude 06:43:31 33° 269° (W) 1,019 4.2 -6.2°
Drops below altitude 10° 06:47:22 10° 206° (SSW) 1,946 6.2 -5.7°
Sets 06:49:44 0° 196° (SSW) 2,848 7.1 -5.4°
